SCP
0 0 0 0 0 0 0 0 0 0 0 -0 -0 -0 -0 0 -0 0 0 0 0 -0
0 0 0 0 0 0 0 0 0 0 0 -0 -0 -0 -0 0 0 -0 0 -0 0 -0
0 0 0 0 0 0 0 0 0 0 0 -0 -0 -0 -0 0 0 0 0 0 0 0
1 0 0 0 0 0 0 0 0 0 0 0 0 0 0 0 0 0 0 0 0 0
1 1 1 0 0 0 0 0 0 0 0 0 0 0 0 0 0 0 0 0 0 0
2 2 1 0 0 0 0 0 0 0 0 0 0 0 0 0 0 0 0 0 0 0
1 2 1 0 1 0 1 0 0 0 0 0 0 0 0 0 0 0 0 0 0 0
1 2 3 1 1 0 0 0 0 0 0 0 0 0 0 0 0 0 0 0 0 0
0 0 1 0 0 0 0 0 0 0 0 0 0 0 0 0 0 0 0 0 0 0
-0 -0 0 -0 -0 0 0 0 0 0 0 0 0 0 0 0 0 0 0 0 0 0
-0 -0 -0 -0 -0 -0 0 0 0 0 0 0 0 0 0 0 0 0 0 0 0 0
0 -0 -0 -0 0 0 0 0 0 0 0 0 0 0 0 -0 0 0 0 0 0 0
0 0 0 0 0 0 0 0 0 0 0 0 0 0 0 0 0 0 0 0 0 0
0 0 0 0 0 0 0 0 0 0 0 0 0 0 0 0 0 0 0 0 0 0
Wind_Speed_500mb
29 20 13 16 15 11 11 11 3 3 6 9 7 9 14 15 16 22 20 23 24 19
33 24 21 21 19 15 18 10 3 2 5 8 9 14 17 15 15 19 23 22 24 19
29 25 21 22 20 19 15 11 3 3 3 7 10 13 16 15 24 19 19 18 20 18
26 25 26 27 24 20 16 8 4 4 4 9 12 15 16 18 20 19 19 16 17 19
28 25 24 25 26 22 15 9 5 7 9 16 19 19 17 16 16 20 17 19 18 20
27 26 27 24 26 21 16 11 13 14 14 18 21 20 22 19 17 19 20 23 20 25
27 30 30 28 26 22 22 18 15 13 14 19 22 16 14 16 18 18 18 18 17 21
36 45 40 34 33 29 26 22 12 13 14 16 13 11 13 15 13 11 13 15 16 22
31 51 44 48 41 37 31 16 11 15 14 14 14 12 8 5 8 15 19 20 23 25
43 42 46 48 40 39 21 12 13 11 9 8 6 6 12 18 17 17 21 22 22 20
45 50 54 45 41 29 17 15 8 7 6 2 11 17 17 18 16 17 21 22 25 28
48 50 45 42 27 24 19 15 5 1 3 10 13 14 11 17 12 13 21 23 25 29
44 44 38 32 30 21 20 14 8 10 15 16 13 11 8 12 6 10 8 13 22 29
41 41 42 33 26 26 21 12 14 18 21 18 11 7 4 6 10 6 10 14 18 20
Wind_Direction_500mb
199 193 185 180 188 176 176 165 244 342 16 10 3 352 353 349 356 352 353 345 343 346
193 189 189 191 180 183 172 176 196 334 359 354 339 336 346 327 346 354 344 346 340 349
191 188 201 197 176 177 183 180 248 337 337 340 331 323 342 332 316 340 340 344 354 360
187 191 194 189 189 187 192 200 273 313 324 327 331 324 327 335 325 340 345 3 357 354
187 188 195 184 178 186 196 217 272 307 298 316 316 320 319 322 320 338 349 349 354 343
197 193 189 188 182 183 202 225 271 295 303 311 317 319 324 324 335 336 336 338 350 349
194 200 188 189 192 195 215 248 265 269 292 313 321 328 334 334 331 331 340 352 1 360
220 229 191 204 210 228 237 238 250 276 300 317 325 327 331 330 333 354 12 21 41 29
214 185 189 207 221 230 239 238 251 283 309 318 319 328 342 4 48 70 71 61 49 36
189 208 203 208 220 231 228 242 259 280 312 318 329 48 79 93 84 73 65 58 57 50
177 179 196 210 219 224 227 227 246 307 319 47 104 101 96 86 73 65 63 55 48 44
175 184 197 208 211 221 217 211 224 221 138 139 126 108 93 97 83 59 48 43 38 35
180 191 203 205 212 211 206 208 198 169 155 149 140 114 97 102 88 60 22 7 2 14
181 195 200 203 205 196 188 192 187 172 167 160 153 137 103 65 70 33 357 344 340 332
Wind_Speed_850mb
29 20 13 16 15 11 11 11 3 3 6 9 7 9 14 15 16 22 20 23 24 19
33 24 21 21 19 15 18 10 3 2 5 8 9 14 17 15 15 19 23 22 24 19
29 25 21 22 20 19 15 11 3 3 3 7 10 13 16 15 24 19 19 18 20 18
26 25 26 27 24 20 16 8 4 4 4 9 12 15 16 18 20 19 19 16 17 19
28 25 24 25 26 22 15 9 5 7 9 16 19 19 17 16 16 20 17 19 18 20
27 26 27 24 26 21 16 11 13 14 14 18 21 20 22 19 17 19 20 23 20 25
27 30 30 28 26 22 22 18 15 13 14 19 22 16 14 16 18 18 18 18 17 21
36 45 40 34 33 29 26 22 12 13 14 16 13 11 13 15 13 11 13 15 16 22
31 51 44 48 41 37 31 16 11 15 14 14 14 12 8 5 8 15 19 20 23 25
43 42 46 48 40 39 21 12 13 11 9 8 6 6 12 18 17 17 21 22 22 20
45 50 54 45 41 29 17 15 8 7 6 2 11 17 17 18 16 17 21 22 25 28
48 50 45 42 27 24 19 15 5 1 3 10 13 14 11 17 12 13 21 23 25 29
44 44 38 32 30 21 20 14 8 10 15 16 13 11 8 12 6 10 8 13 22 29
41 41 42 33 26 26 21 12 14 18 21 18 11 7 4 6 10 6 10 14 18 20
Wind_Direction_850mb
199 193 185 180 188 176 176 165 244 342 16 10 3 352 353 349 356 352 353 345 343 346
193 189 189 191 180 183 172 176 196 334 359 354 339 336 346 327 346 354 344 346 340 349
191 188 201 197 176 177 183 180 248 337 337 340 331 323 342 332 316 340 340 344 354 360
187 191 194 189 189 187 192 200 273 313 324 327 331 324 327 335 325 340 345 3 357 354
187 188 195 184 178 186 196 217 272 307 298 316 316 320 319 322 320 338 349 349 354 343
197 193 189 188 182 183 202 225 271 295 303 311 317 319 324 324 335 336 336 338 350 349
194 200 188 189 192 195 215 248 265 269 292 313 321 328 334 334 331 331 340 352 1 360
220 229 191 204 210 228 237 238 250 276 300 317 325 327 331 330 333 354 12 21 41 29
214 185 189 207 221 230 239 238 251 283 309 318 319 328 342 4 48 70 71 61 49 36
189 208 203 208 220 231 228 242 259 280 312 318 329 48 79 93 84 73 65 58 57 50
177 179 196 210 219 224 227 227 246 307 319 47 104 101 96 86 73 65 63 55 48 44
175 184 197 208 211 221 217 211 224 221 138 139 126 108 93 97 83 59 48 43 38 35
180 191 203 205 212 211 206 208 198 169 155 149 140 114 97 102 88 60 22 7 2 14
181 195 200 203 205 196 188 192 187 172 167 160 153 137 103 65 70 33 357 344 340 332